TimeCDT,TemperatureF,Dew PointF,Humidity,Sea Level PressureIn,VisibilityMPH,Wind Direction,Wind SpeedMPH,Gust SpeedMPH,PrecipitationIn,Events,Conditions,WindDirDegrees,DateUTC
12:15 AM,68.0,64.4,88,29.97,0.8,Calm,Calm,-,N/A,,Mist,0,2013-05-23 05:15:00
12:35 AM,66.2,64.4,94,29.97,1.0,Calm,Calm,-,N/A,,Mist,0,2013-05-23 05:35:00
12:55 AM,68.0,64.4,88,29.97,7.0,Calm,Calm,-,N/A,,Clear,0,2013-05-23 05:55:00
1:15 AM,68.0,66.2,94,29.97,10.0,Calm,Calm,-,N/A,,Clear,0,2013-05-23 06:15:00
1:35 AM,68.0,64.4,88,29.96,10.0,Calm,Calm,-,N/A,,Clear,0,2013-05-23 06:35:00
1:55 AM,68.0,64.4,88,29.96,5.0,Calm,Calm,-,N/A,,Clear,0,2013-05-23 06:55:00
2:15 AM,64.4,62.6,94,29.96,10.0,Calm,Calm,-,N/A,,Clear,0,2013-05-23 07:15:00
2:35 AM,66.2,62.6,88,29.96,2.5,Calm,Calm,-,N/A,,Clear,0,2013-05-23 07:35:00
2:55 AM,68.0,64.4,88,29.97,10.0,Calm,Calm,-,N/A,,Clear,0,2013-05-23 07:55:00
3:15 AM,66.2,62.6,88,29.97,10.0,Calm,Calm,-,N/A,,Scattered Clouds,0,2013-05-23 08:15:00
3:35 AM,66.2,62.6,88,29.97,4.0,Calm,Calm,-,N/A,,Scattered Clouds,0,2013-05-23 08:35:00
3:55 AM,68.0,64.4,88,29.97,4.0,Calm,Calm,-,N/A,,Scattered Clouds,0,2013-05-23 08:55:00
4:15 AM,66.2,64.4,94,29.98,0.5,Calm,Calm,-,N/A,Fog,Fog,0,2013-05-23 09:15:00
4:35 AM,68.0,64.4,88,29.98,0.2,Calm,Calm,-,N/A,Fog,Fog,0,2013-05-23 09:35:00
4:55 AM,66.2,62.6,88,29.99,0.5,Calm,Calm,-,N/A,Fog,Fog,0,2013-05-23 09:55:00
5:15 AM,66.2,62.6,88,29.99,1.8,Calm,Calm,-,N/A,,Scattered Clouds,0,2013-05-23 10:15:00
5:35 AM,64.4,62.6,94,30.00,1.0,Calm,Calm,-,N/A,,Scattered Clouds,0,2013-05-23 10:35:00
5:55 AM,64.4,62.6,94,30.01,7.0,Calm,Calm,-,N/A,,Clear,0,2013-05-23 10:55:00
6:15 AM,66.2,64.4,94,30.02,7.0,Calm,Calm,-,N/A,,Clear,0,2013-05-23 11:15:00
6:35 AM,68.0,64.4,88,30.02,7.0,Calm,Calm,-,N/A,,Clear,0,2013-05-23 11:35:00
6:55 AM,69.8,66.2,88,30.03,10.0,Calm,Calm,-,N/A,,Clear,0,2013-05-23 11:55:00
7:15 AM,71.6,69.8,94,30.04,10.0,Calm,Calm,-,N/A,,Clear,0,2013-05-23 12:15:00
7:35 AM,73.4,68.0,83,30.04,10.0,Calm,Calm,-,N/A,,Clear,0,2013-05-23 12:35:00
7:55 AM,75.2,68.0,78,30.05,10.0,NNW,3.5,-,N/A,,Clear,330,2013-05-23 12:55:00
8:15 AM,77.0,69.8,78,30.05,10.0,NW,5.8,-,N/A,,Clear,310,2013-05-23 13:15:00
8:35 AM,78.8,68.0,69,30.05,10.0,NW,6.9,-,N/A,,Clear,310,2013-05-23 13:35:00
8:55 AM,78.8,68.0,69,30.05,10.0,NW,5.8,-,N/A,,Scattered Clouds,320,2013-05-23 13:55:00
9:15 AM,80.6,66.2,61,30.06,10.0,NW,5.8,-,N/A,,Scattered Clouds,320,2013-05-23 14:15:00
9:35 AM,80.6,66.2,61,30.05,10.0,NNW,6.9,-,N/A,,Clear,330,2013-05-23 14:35:00
9:55 AM,80.6,64.4,58,30.05,10.0,WNW,4.6,-,N/A,,Scattered Clouds,300,2013-05-23 14:55:00
10:15 AM,82.4,64.4,54,30.05,10.0,North,5.8,-,N/A,,Scattered Clouds,350,2013-05-23 15:15:00
10:35 AM,82.4,62.6,51,30.05,10.0,WNW,4.6,-,N/A,,Scattered Clouds,300,2013-05-23 15:35:00
10:55 AM,82.4,62.6,51,30.05,10.0,NW,4.6,-,N/A,,Scattered Clouds,310,2013-05-23 15:55:00
11:15 AM,84.2,62.6,48,30.05,10.0,NW,3.5,-,N/A,,Scattered Clouds,310,2013-05-23 16:15:00
11:35 AM,82.4,62.6,51,30.04,10.0,Calm,Calm,-,N/A,,Scattered Clouds,0,2013-05-23 16:35:00
11:55 AM,86.0,60.8,43,30.03,10.0,North,3.5,-,N/A,,Scattered Clouds,10,2013-05-23 16:55:00
12:15 PM,84.2,60.8,45,30.03,10.0,West,4.6,-,N/A,,Scattered Clouds,260,2013-05-23 17:15:00
12:35 PM,86.0,64.4,48,30.03,10.0,WSW,5.8,-,N/A,,Scattered Clouds,250,2013-05-23 17:35:00
12:55 PM,86.0,64.4,48,30.03,10.0,West,9.2,-,N/A,,Clear,260,2013-05-23 17:55:00
1:15 PM,86.0,64.4,48,30.03,10.0,WSW,9.2,-,N/A,,Clear,240,2013-05-23 18:15:00
1:35 PM,86.0,64.4,48,30.03,10.0,North,-9999.0,-,N/A,,Clear,0,2013-05-23 18:35:00
1:55 PM,86.0,64.4,48,30.02,10.0,West,13.8,-,N/A,,Clear,260,2013-05-23 18:55:00
2:15 PM,86.0,62.6,45,30.02,10.0,WSW,12.7,-,N/A,,Clear,250,2013-05-23 19:15:00
2:35 PM,86.0,60.8,43,30.02,10.0,West,10.4,-,N/A,,Clear,260,2013-05-23 19:35:00
2:55 PM,86.0,60.8,43,30.02,10.0,North,-9999.0,-,N/A,,Clear,0,2013-05-23 19:55:00
3:15 PM,86.0,59.0,40,30.01,10.0,WSW,11.5,-,N/A,,Clear,250,2013-05-23 20:15:00
3:35 PM,87.8,51.8,29,30.00,10.0,WSW,11.5,-,N/A,,Clear,250,2013-05-23 20:35:00
3:55 PM,87.8,53.6,31,30.00,10.0,North,-9999.0,-,N/A,,Clear,0,2013-05-23 20:55:00
4:15 PM,86.0,55.4,35,30.00,10.0,West,11.5,-,N/A,,Clear,260,2013-05-23 21:15:00
4:35 PM,86.0,57.2,37,29.99,10.0,WSW,11.5,-,N/A,,Clear,250,2013-05-23 21:35:00
4:55 PM,86.0,64.4,48,30.00,10.0,West,10.4,-,N/A,,Clear,270,2013-05-23 21:55:00
5:15 PM,84.2,62.6,48,29.99,10.0,West,10.4,-,N/A,,Clear,270,2013-05-23 22:15:00
5:35 PM,84.2,62.6,48,29.99,10.0,West,11.5,-,N/A,,Clear,270,2013-05-23 22:35:00
5:55 PM,82.4,62.6,51,29.99,10.0,West,10.4,-,N/A,,Clear,260,2013-05-23 22:55:00
6:15 PM,82.4,62.6,51,29.99,10.0,West,10.4,-,N/A,,Clear,260,2013-05-23 23:15:00
6:35 PM,82.4,62.6,51,29.99,10.0,West,10.4,-,N/A,,Clear,260,2013-05-23 23:35:00
6:55 PM,80.6,66.2,61,29.99,10.0,West,8.1,-,N/A,,Clear,270,2013-05-23 23:55:00
7:15 PM,80.6,68.0,65,29.99,10.0,WSW,5.8,-,N/A,,Clear,250,2013-05-24 00:15:00
7:35 PM,78.8,68.0,69,30.00,10.0,WSW,6.9,-,N/A,,Clear,250,2013-05-24 00:35:00
7:55 PM,77.0,68.0,74,30.01,10.0,West,8.1,-,N/A,,Clear,260,2013-05-24 00:55:00
8:15 PM,77.0,68.0,74,30.01,10.0,West,5.8,-,N/A,,Clear,260,2013-05-24 01:15:00
8:35 PM,75.2,68.0,78,30.01,10.0,WSW,5.8,-,N/A,,Clear,250,2013-05-24 01:35:00
8:55 PM,75.2,69.8,83,30.02,10.0,West,4.6,-,N/A,,Clear,270,2013-05-24 01:55:00
9:15 PM,75.2,69.8,83,30.03,10.0,West,4.6,-,N/A,,Clear,260,2013-05-24 02:15:00
9:35 PM,75.2,69.8,83,30.03,10.0,WSW,5.8,-,N/A,,Clear,250,2013-05-24 02:35:00
9:55 PM,75.2,69.8,83,30.04,10.0,West,5.8,-,N/A,,Clear,270,2013-05-24 02:55:00
10:15 PM,75.2,69.8,83,30.04,10.0,West,5.8,-,N/A,,Clear,260,2013-05-24 03:15:00
10:35 PM,77.0,69.8,78,30.04,10.0,West,4.6,-,N/A,,Clear,280,2013-05-24 03:35:00
10:55 PM,77.0,69.8,78,30.04,10.0,West,4.6,-,N/A,,Clear,270,2013-05-24 03:55:00
11:15 PM,75.2,69.8,83,30.04,10.0,West,5.8,-,N/A,,Clear,270,2013-05-24 04:15:00
11:35 PM,77.0,69.8,78,30.04,10.0,West,4.6,-,N/A,,Clear,280,2013-05-24 04:35:00
11:55 PM,75.2,69.8,83,30.04,10.0,West,4.6,-,N/A,,Clear,270,2013-05-24 04:55:00